Regional Weather Roundup
Issued by NWS

Home | Current Version | Previous Version | Graphics & Text | Print | Product List | Glossary On
Versions: 1 2 3 4 5 6 7 8 9 10 11 12 13 14 15 16 17 18 19 20 21 22 23 24 25 26 27 28 29 30 31 32 33 34 35 36 37 38 39 40 41 42 43 44 45 46 47 48 49 50
000
ASUS43 KLSX 290259
RWRMO

WEATHER SUMMARY FOR MISSOURI
NATIONAL WEATHER SERVICE SPRINGFIELD MO
1000 PM CDT TUE JUL 28 2015

NOTE: "FAIR" INDICATES FEW OR NO CLOUDS BELOW 12,000 FEET WITH NO
       SIGNIFICANT WEATHER AND/OR OBSTRUCTIONS TO VISIBILITY.
       CURRENT SKY AND/OR WEATHER CONDITIONS ARE NOT AVAILABLE FOR
       CHILLICOTHE AND FARMINGTON.

MOZ001>031-035>038-043-044-053-054-290400-
...NORTHERN AND WESTERN MISSOURI...

CITY           SKY/WX    TMP DP  RH WIND       PRES   REMARKS
KANSAS CTY INT PTCLDY    83  72  69 S9        29.91R
KANSAS C DTWN  CLEAR     88  72  58 S5        29.90R HX  94
LEE`S SUMMIT   CLEAR     85  72  65 S7        29.93R HX  91
ST JOSEPH      PTCLDY    85  74  69 S9        29.87R HX  92
CHILLICOTHE      N/A     85  76  74 SE6       29.92R HX  94
KIRKSVILLE     CLEAR     79  75  87 S5        29.96R

$$
MOZ066>068-077>081-088>096-101>105-290400-
...SOUTHWEST MISSOURI...

CITY           SKY/WX    TMP DP  RH WIND       PRES   REMARKS
SPRINGFIELD    CLEAR     81  74  79 SE6       29.97R
JOPLIN         CLEAR     81  74  79 S8        29.94R

$$
MOZ032>034-039>042-045>050-055>058-069>072-290400-
...CENTRAL MISSOURI...

CITY           SKY/WX    TMP DP  RH WIND       PRES   REMARKS
COLUMBIA       CLEAR     81  77  88 S7        29.94F
JEFFERSON CITY CLEAR     83  78  85 CALM      29.93R HX  93
ROLLA          CLEAR     79  74  84 S5        29.98R
SEDALIA        CLEAR     81  75  82 S6        29.95R
OSAGE BEACH    CLEAR     82  75  78 SE6       29.97R

$$
MOZ051-052-059>065-290400-
...EAST CENTRAL MISSOURI...

CITY           SKY/WX    TMP DP  RH WIND       PRES   REMARKS
ST LOUIS INTL  PTCLDY    90  76  63 S7        29.94S HX 101
SPIRIT OF STL  PTCLDY    86  81  85 S5        29.92S HX 102
ST CHARLES     PTCLDY    82  78  88 E6        29.92S HX  91

$$
MOZ072>076-082>087-097>100-106>115-290400-
...SOUTH CENTRAL AND SOUTHEAST MISSOURI...

CITY           SKY/WX    TMP DP  RH WIND       PRES   REMARKS
CAPE GIRARDEAU CLOUDY    84  77  79 S6        29.95S HX  94
FARMINGTON     CLEAR     81  77  89 CALM      30.02S
POPLAR BLUFF   CLEAR     83  80  91 CALM      29.96R HX  95
WEST PLAINS    CLEAR     83  75  77 CALM      30.01R HX  90

$$


USA.gov is the U.S. government's official web portal to all federal, state and local government web resources and services.